sat.trackr.live / text

‹ back to catalog

STARLINK-35858

NORAD 66833 · 2025-280N

PAYLOAD ACTIVE UNKNOWN

§ Identity

Operator
Country
US
Launch date
2025-12-02
Launch site
AFWTR
Launch vehicle
Mass (kg)
RCS (m²)

Purposes: comms

External: N2YO · Heavens-Above · Gunter

§ Orbital elements

Epoch: 2026-05-25T02:36:32.182848Z

Period
96.11 min
Inclination
70.0006°
Eccentricity
0.0004022
Mean motion
14.98329764 rev/d
Perigee alt
569.3 km
Apogee alt
574.9 km
Semi-major
6,950.2 km
B*
3.4495e-4
RAAN
141.7411°
Arg perigee
268.0109°
Mean anomaly
92.0589°
Rev number
2,752

§ Raw data

STARLINK-358581 66833U 25280N   26145.10870582  .00004025  00000+0  34495-3 0  99902 66833  70.0006 141.7411 0004022 268.0109  92.0589 14.98329764 27526

JSON: /api/v1/satellites/66833 · /tle

For live sub-satellite position, see the globe view (requires WebGL).

§ Visibility from observer

Set your observer location to see the next 7 days of passes ≥ 10°. The values pass through the URL so the page stays shareable.

No JS? Fill the form by hand. The geolocation button needs JavaScript.